Weather History for KFFO - April, 2013

Change the Weather History Date:

Friday, April 26, 2013

  Actual Average (KDAY) Record (KDAY)
Temperature  
Mean Temperature 45 °F 55 °F  
Max Temperature 60 °F 66 °F 88 °F (1986)
Min Temperature 31 °F 45 °F 30 °F (1919)
Degree Days  
Heating Degree Days 20 10  
Month to date heating degree days 374  
Since 1 July heating degree days 5413  
Cooling Degree Days 0 1  
Month to date cooling degree days 6  
Year to date cooling degree days 6  
Moisture  
Dew Point 32 °F    
Average Humidity 60    
Maximum Humidity 89    
Minimum Humidity 34    
Precipitation  
Precipitation 0.00 in 0.14 in 1.45 in (1989)
Month to date precipitation 3.53  
Year to date precipitation 11.82  
Snow  
Snow 0.00 in 0.00 in 0.00 in ()
Month to date snowfall 0.6  
Since 1 July snowfall 23.3  
Snow Depth -    
Sea Level Pressure  
Sea Level Pressure 30.42 in    
Wind  
Wind Speed 2 mph (ESE)    
Max Wind Speed 8 mph    
Max Gust Speed -    
Visibility 10 miles    
Events      
T = Trace of Precipitation, MM = Missing Value Source: NWS Daily Summary

Daily Weather History Graph

Daily Weather History Graph

Search for Another Location

Airport or City:

Trip Planner

Search our weather history database for the weather conditions in past years. The results will help you decide how hot, cold, wet, or windy it might be!

Date:

Astronomy

Apr. 26, 2013 Rise Set
Actual Time 6:42 AM EDT 8:25 PM EDT
Civil Twilight 6:13 AM EDT 8:54 PM EDT
Nautical Twilight 5:39 AM EDT 9:29 PM EDT
Astronomical Twilight 5:01 AM EDT 10:07 PM EDT
Moon 9:47 PM EDT (4/26) 7:09 AM EDT (4/26)
Length of Visible Light 14h 40m
Length of Day
13h 43m
Full, 99% of the Moon is Illuminated
Apr 26
Full
May 2
Last Quarter
May 9
New
May 18
First Quarter
May 25
Full

Hourly Weather History & Observations

Time (EDT) Temp. Windchill Dew Point Humidity Pressure Visibility Wind Dir Wind Speed Gust Speed Precip Events Conditions
12:55 AM 39.6 °F 37.4 °F 30.4 °F 70% 30.40 in 10.0 mi NNW 3.5 mph - N/A   Clear
1:55 AM 37.0 °F - 29.5 °F 74% 30.40 in 10.0 mi Calm Calm - N/A   Clear
2:55 AM 35.1 °F - 29.5 °F 80% 30.39 in 10.0 mi Calm Calm - N/A   Clear
3:55 AM 33.4 °F - 28.8 °F 83% 30.41 in 10.0 mi Calm Calm - N/A   Clear
4:55 AM 32.9 °F - 28.6 °F 84% 30.42 in 10.0 mi Calm Calm - N/A   Clear
5:55 AM 32.0 °F - 28.6 °F 87% 30.44 in 10.0 mi Calm Calm - N/A   Clear
6:55 AM 31.3 °F - 28.0 °F 88% 30.45 in 10.0 mi Calm Calm - N/A   Mostly Cloudy
7:55 AM 33.1 °F - 30.0 °F 89% 30.48 in 10.0 mi Calm Calm - N/A   Mostly Cloudy
8:55 AM 40.6 °F - 33.3 °F 75% 30.49 in 10.0 mi Calm Calm - N/A   Partly Cloudy
9:55 AM 47.1 °F - 31.5 °F 55% 30.47 in 10.0 mi ESE 3.5 mph - N/A   Clear
10:55 AM 49.8 °F - 29.8 °F 46% 30.47 in 10.0 mi Variable 3.5 mph - N/A   Clear
11:55 AM 52.0 °F - 28.6 °F 41% 30.47 in 10.0 mi Variable 3.5 mph - N/A   Scattered Clouds
12:55 PM 54.9 °F - 32.5 °F 43% 30.47 in 10.0 mi Variable 4.6 mph - N/A   Scattered Clouds
1:55 PM 56.3 °F - 30.7 °F 38% 30.45 in 10.0 mi Calm Calm - N/A   Partly Cloudy
2:55 PM 58.5 °F - 31.8 °F 37% 30.43 in 10.0 mi East 5.8 mph - N/A   Partly Cloudy
3:55 PM 59.4 °F - 30.7 °F 34% 30.40 in 10.0 mi East 8.1 mph - N/A   Mostly Cloudy
4:55 PM 59.2 °F - 33.3 °F 38% 30.39 in 10.0 mi ESE 5.8 mph - N/A   Mostly Cloudy
5:55 PM 58.5 °F - 33.6 °F 39% 30.39 in 10.0 mi South 4.6 mph - N/A   Mostly Cloudy
6:55 PM 58.3 °F - 31.3 °F 36% 30.40 in 10.0 mi South 3.5 mph - N/A   Mostly Cloudy
7:55 PM 56.3 °F - 33.1 °F 41% 30.38 in 10.0 mi SSE 5.8 mph - N/A   Mostly Cloudy
8:55 PM 53.4 °F - 36.3 °F 52% 30.38 in 10.0 mi Calm Calm - N/A   Mostly Cloudy
9:55 PM 50.9 °F - 38.5 °F 62% 30.39 in 10.0 mi Calm Calm - N/A   Mostly Cloudy
10:55 PM 46.4 °F 45.2 °F 35.8 °F 67% 30.38 in 10.0 mi NNE 3.5 mph - N/A   Partly Cloudy
11:55 PM 48.0 °F - 41.2 °F 77% 30.37 in 10.0 mi Calm Calm - N/A   Partly Cloudy